Regional Weather Roundup
Issued by NWS

Home | Current Version | Previous Version | Text Only | Print | Product List | Glossary Off
Versions: 1 2 3 4 5 6 7 8 9 10 11 12 13 14 15 16 17 18 19 20 21 22 23 24 25 26 27 28 29 30 31 32 33 34 35 36 37 38 39 40 41 42 43 44 45 46 47 48 49 50

000
ASUS44 KOUN 241310
RWROK

WEATHER ROUNDUP FOR OKLAHOMA
NATIONAL WEATHER SERVICE NORMAN OK
800 AM CDT MON JUL 24 2017

NOTE: "FAIR" INDICATES FEW OR NO CLOUDS BELOW 12,000 FEET WITH NO
      SIGNIFICANT WEATHER AND/OR OBSTRUCTIONS TO VISIBILITY.

OKZ001>007-009>012-014-015-017-241400-
NORTHWEST OKLAHOMA AND THE PANHANDLE

CITY           SKY/WX    TMP DP  RH WIND       PRES   REMARKS
GAGE           SUNNY     71  66  84 CALM      30.03R
GUYMON         SUNNY     71  65  81 CALM      30.06R
ENID/WOODRING  SUNNY     72  72 100 CALM      29.97R
$$

OKZ016-021>023-033>039-044-045-241400-
SOUTHWEST OKLAHOMA

CITY           SKY/WX    TMP DP  RH WIND       PRES   REMARKS
LAWTON/REGL    SUNNY     73  72  96 CALM      29.98R
LAWTON/FT SILL MOSUNNY   75  68  78 SW2       29.97R
FREDERICK      MOSUNNY   75  72  90 N5        29.96R
CLINTON        SUNNY     72  68  87 W3        30.02R
HOBART         SUNNY     73  70  90 NW3       30.01R
ALTUS AFB      SUNNY     73  70  89 CALM      29.99R
$$

OKZ018>020-024>031-241400-
CENTRAL OKLAHOMA

CITY           SKY/WX    TMP DP  RH WIND       PRES   REMARKS
OKLAHOMA CITY  SUNNY     74  70  87 NW6       29.98R
OKC/WILEY POST SUNNY     75  71  87 CALM      29.98R
OKC/TINKER AFB SUNNY     75  69  80 NW6       29.97R
STILLWATER     SUNNY     75  69  81 CALM      29.96S
GUTHRIE        SUNNY     74  70  87 CALM      29.98R
$$

OKZ008-013-054>072-241400-
NORTHEAST OKLAHOMA

CITY           SKY/WX    TMP DP  RH WIND       PRES   REMARKS
TULSA          SUNNY     76  70  82 SE3       29.95R
TULSA/JONES    SUNNY     75  69  81 CALM      29.97R
PONCA CITY     SUNNY     75  68  78 CALM      29.97R
BARTLESVILLE   SUNNY     74  69  85 CALM      29.98R
MUSKOGEE       SUNNY     73  73 100 SE3       29.98R
$$

OKZ032-040>043-046>053-073>077-241400-
SOUTH CENTRAL/SOUTHEAST OKLAHOMA

CITY           SKY/WX    TMP DP  RH WIND       PRES   REMARKS
ARDMORE/DWNTWN SUNNY     72  68  88 CALM      29.97R
MCALESTER      SUNNY     75  71  87 CALM      29.98R
$$




USA.gov is the U.S. government's official web portal to all federal, state and local government web resources and services.